Powrót do katalogu

SL-16 DEB

AktywnyLEO
NORAD 19128·DEBRIS·🇷🇺 Russia

Wystrzelony May 15, 1988 z Baikonur Cosmodrome

Loading…

Następne Przeloty (najbliższe 24 godziny)

TLE

ŚwieżeSource: Space-Track

Epoka: Sep 13, 2026, 20:15 UTC

1 19128U 88039F   26256.84420486  .00000045  00000-0  81896-4 0  9991
2 19128  70.9832  45.4750 0201573 131.5194  19.4788 13.72886551919247

Śledź SL-16 DEB w czasie rzeczywistym z AllMySat

Download on the App Store